Location: ??????
(55.7522°N, 37.6156°E)
Time: 18:24:53
(UTC+00:00)

SL-24 R/B - RUBIN 2 - Pass Details

Date: 14 June 2025
Orbit: 589 x 998 km, 64.6° (Epoch: 12 July)

Event Time Altitude Azimuth Distance (km) Brightness Sun altitude
Rises 21:46:16 0° 310° (NW) 3,294 7.8 -10.9°
Reaches altitude 10° 21:48:49 10° 311° (NW) 2,295 7.0 -10.8°
Maximum altitude 21:54:02 88° 38° (NE) 702 3.8 -10.8°
Drops below altitude 10° 21:58:40 10° 132° (SE) 2,046 5.9 -10.7°
Sets 22:00:51 0° 133° (SE) 2,910 6.7 -10.7°
Enters shadow 22:01:02 -1° 133° (SE) 2,988 6.7 -10.7°
